SCP
0 -0 -0 -0 -0 -0 -0 -0 -0 -0 0 -0 0 0 0 0 0 0 0 0 0 0 0 -0 -0 -0 -0 -0 -0 0 0 0 0 0 0 0 0 0 0 0 0 0 0 0
0 -0 -0 -0 0 -0 -0 -0 -0 -0 0 -0 0 -0 -0 -0 0 0 0 0 0 0 0 -0 -0 -0 -0 -0 -0 -0 -0 -0 -0 -0 -0 -0 -0 -0 -0 -0 -0 0 0 0
-0 0 -0 -0 -0 -0 -0 0 0 0 0 -0 0 0 0 0 -0 -0 -0 -0 -0 -0 -0 0 -0 -0 -0 -0 -0 -0 -0 -0 -0 -0 -0 -0 -0 -0 0 0 0 -0 -0 -0
0 0 -0 0 -0 -0 -0 -0 0 -0 -0 -0 -0 -0 0 0 0 -0 -0 -0 -0 -0 -0 -0 -0 -0 -0 -0 -0 -0 -0 -0 -0 -0 -0 -0 -0 -0 -0 -0 -0 -0 -0 -0
0 -0 0 -0 0 -0 -0 -0 0 -0 0 -0 -0 -0 0 -0 0 0 -0 -0 0 0 -0 -0 -0 -0 -0 -0 -0 -0 -0 -0 -0 -0 -0 -0 -0 -0 -0 -0 -0 -0 -0 -0
0 0 0 0 0 0 0 0 0 0 0 -0 0 -0 0 -0 -0 -0 0 0 0 0 0 0 -0 -0 -0 -0 -0 -0 -0 -0 -0 -0 -0 -0 -0 -0 -0 -0 -0 -0 -0 -0
0 0 0 -0 0 0 0 0 0 0 0 0 0 0 0 0 -0 -0 0 0 0 0 0 0 -0 -0 -0 -0 -0 -0 -0 -0 -0 -0 -0 -0 -0 -0 -0 -0 -0 -0 -0 -0
0 0 0 0 -0 0 0 0 0 0 0 0 0 0 0 0 0 0 0 0 0 0 0 0 -0 -0 -0 0 0 0 0 -0 -0 -0 -0 -0 -0 -0 -0 -0 -0 -0 -0 -0
0 0 0 0 0 0 0 0 0 0 0 0 0 0 0 0 0 0 0 0 0 0 0 0 0 0 0 0 0 0 0 0 0 0 0 0 -0 -0 -0 -0 -0 -0 -0 -0
0 0 0 0 0 0 0 0 0 0 0 0 0 0 0 0 0 0 0 0 0 0 0 0 0 0 0 0 0 0 0 0 0 0 0 0 0 0 0 0 -0 -0 -0 -0
0 0 0 0 0 0 0 0 0 0 0 0 0 0 0 0 0 0 0 0 0 0 0 0 0 0 0 0 0 0 0 0 0 0 0 0 0 0 0 0 0 0 -0 -0
0 0 0 0 0 0 0 0 0 0 0 0 0 0 0 0 0 0 0 0 0 0 0 0 0 0 0 0 0 0 0 0 0 0 0 0 0 0 0 0 0 0 0 0
0 0 0 0 0 0 0 0 0 0 0 0 0 0 0 0 0 0 0 0 0 0 0 0 0 0 0 0 0 0 0 0 0 0 0 0 0 0 0 0 0 0 0 0
0 0 0 0 0 0 0 0 0 0 0 0 0 0 0 0 0 0 0 0 0 0 0 0 0 0 0 0 0 0 0 0 0 0 0 0 0 0 0 0 0 0 0 0
0 0 0 0 0 0 0 0 0 0 0 0 0 0 0 0 0 0 0 0 0 0 0 0 0 0 0 0 0 0 0 0 0 0 0 0 0 0 0 0 0 0 0 0
0 0 0 0 0 0 0 0 0 0 0 0 0 0 0 0 0 0 0 0 0 0 0 0 0 0 0 0 0 0 0 0 0 0 0 0 0 0 0 0 0 0 0 0
0 0 0 0 0 0 0 0 0 0 0 0 0 0 0 0 0 0 0 0 0 0 0 0 0 0 0 0 0 0 0 0 0 0 0 0 0 0 0 0 0 0 0 0
0 0 0 0 0 0 0 0 0 0 0 0 0 0 0 0 0 0 0 0 0 0 0 0 0 0 0 0 0 0 0 0 0 0 0 0 0 0 0 0 0 0 0 0
0 0 0 0 0 0 0 0 0 0 0 0 0 0 0 0 0 0 0 0 0 0 0 0 0 0 0 0 0 0 0 0 0 0 0 0 0 0 0 0 0 0 0 0
0 0 0 0 0 0 0 0 0 0 0 0 0 0 0 0 0 0 0 0 0 0 0 0 0 0 0 0 0 0 0 0 0 0 0 0 0 0 0 0 0 0 0 0
0 0 0 0 0 0 0 0 0 0 0 0 0 0 0 0 0 0 0 0 0 0 0 0 0 0 0 0 0 0 0 0 0 0 0 0 0 0 0 0 0 0 0 0
0 0 0 0 0 0 0 0 0 0 0 0 0 0 0 0 0 0 0 0 0 0 0 0 0 0 0 0 0 0 0 0 0 0 0 0 0 0 0 0 0 0 0 0
0 0 0 0 0 0 0 0 0 0 0 0 0 0 0 0 0 0 0 0 0 0 0 0 0 0 0 0 0 0 0 0 0 0 0 0 0 0 0 0 0 0 0 0
0 0 0 0 0 0 0 0 0 0 0 0 0 0 0 0 0 0 0 0 0 0 0 0 0 0 0 0 0 0 0 0 0 0 0 0 0 0 0 0 0 0 0 0
0 0 0 0 0 0 0 0 0 0 0 0 0 0 0 0 0 0 0 0 0 0 0 0 0 0 0 0 0 0 0 0 0 0 0 0 0 0 0 0 0 0 0 0
0 0 0 0 0 0 0 0 0 0 0 0 0 0 0 0 0 0 0 0 0 0 0 0 0 0 0 0 0 0 0 0 0 0 0 0 0 0 0 0 0 0 0 0
Wind_Speed_500mb
30 26 24 22 18 15 23 28 27 14 4 21 26 24 15 11 15 15 15 20 25 30 32 38 42 43 45 49 52 56 57 60 61 64 65 64 63 61 60 61 61 60 60 59
16 27 17 8 16 25 26 30 22 18 13 13 19 19 13 11 10 8 8 11 14 20 28 39 43 42 40 42 47 50 53 56 61 62 65 66 63 60 62 60 60 61 62 61
28 9 13 5 18 19 21 13 8 13 16 17 14 13 17 12 10 7 4 4 9 19 29 39 41 39 37 32 38 44 47 51 56 61 63 63 61 59 62 64 64 63 61 59
18 12 13 14 12 11 10 7 15 19 5 5 5 5 16 19 17 17 14 10 2 12 25 36 38 39 36 28 29 35 40 44 50 56 61 64 64 65 65 65 64 63 63 63
8 12 15 20 10 12 9 6 9 6 8 4 3 3 9 13 22 24 25 16 9 3 23 33 33 35 29 25 21 27 32 37 44 52 59 62 61 62 64 65 65 65 65 65
11 5 10 7 6 9 16 9 7 5 2 3 3 4 9 13 19 22 32 25 18 10 14 33 32 30 27 24 17 21 25 31 37 44 52 58 60 63 66 68 71 74 73 70
4 8 3 8 4 8 3 4 1 3 3 2 4 5 8 12 13 18 36 31 23 14 13 30 31 30 26 23 19 22 26 30 35 42 51 56 61 63 64 67 71 75 79 78
4 5 11 15 7 3 6 1 3 5 3 3 2 9 2 3 12 14 22 24 22 21 14 24 24 23 23 23 23 24 26 30 34 40 48 53 58 62 62 64 67 73 77 77
8 5 1 5 11 5 4 2 4 12 2 4 0 7 10 10 17 19 23 26 29 25 20 22 20 19 22 25 25 24 25 29 31 36 44 50 56 60 63 62 65 72 76 75
8 8 1 3 3 19 5 13 2 2 2 6 3 9 5 19 28 27 32 37 35 30 32 24 27 22 21 22 23 24 26 30 33 35 43 49 56 62 65 64 66 73 73 73
8 3 6 3 1 3 4 4 9 6 4 4 6 5 7 17 19 26 38 38 34 32 35 38 36 26 23 21 24 26 28 32 37 38 45 51 57 63 67 66 68 74 74 74
4 5 5 3 4 2 2 2 3 4 6 2 3 12 8 9 12 20 26 27 28 31 34 39 36 31 29 29 30 29 31 38 41 43 48 54 58 64 69 70 72 77 76 78
15 3 4 4 4 2 8 10 7 7 2 12 7 8 4 9 15 22 26 23 26 28 38 35 33 34 37 41 43 41 37 41 47 48 53 59 61 67 71 71 76 77 77 76
6 3 6 6 5 7 8 12 14 7 8 12 18 21 17 17 21 27 29 29 35 44 43 33 28 27 31 39 46 52 51 49 51 53 56 60 62 69 72 70 76 76 74 72
6 9 4 3 3 3 7 14 28 24 16 18 11 20 36 17 22 33 32 36 36 36 34 34 35 37 38 46 50 50 52 55 58 61 64 64 64 69 71 69 75 77 69 71
6 6 4 4 2 3 15 28 34 37 37 36 35 46 60 67 45 40 33 26 30 36 36 41 47 42 44 50 56 57 56 54 61 64 66 63 64 70 69 71 76 73 69 72
13 15 9 6 5 6 14 21 39 25 20 38 26 28 17 16 16 23 29 26 34 40 41 40 41 42 47 53 57 59 58 59 57 63 62 60 64 68 67 72 75 70 70 75
14 11 1 2 3 10 3 2 9 36 20 42 25 33 30 30 23 35 42 45 46 39 33 41 49 47 56 55 57 56 60 58 60 61 59 60 65 66 69 72 70 68 72 77
1 9 7 6 9 15 11 15 16 21 16 49 46 54 45 33 23 46 38 34 36 30 42 47 48 50 53 56 52 60 64 58 60 59 57 60 63 66 71 71 69 70 76 82
8 9 1 7 8 11 2 6 14 16 14 26 54 44 39 13 11 28 25 23 32 41 45 47 50 53 57 56 57 64 57 57 60 55 55 60 64 68 69 69 70 74 79 87
9 6 16 9 10 18 17 24 26 8 6 26 39 35 30 21 38 32 30 39 40 45 48 51 55 56 61 56 60 60 58 59 54 54 58 60 62 64 64 65 68 77 85 91
21 22 12 9 10 22 44 25 16 9 20 27 21 25 32 39 41 43 46 50 50 51 53 55 55 55 54 53 55 58 57 55 54 55 58 58 59 59 60 65 71 78 86 92
12 14 15 24 17 4 87 22 64 17 22 27 29 25 36 43 50 54 55 53 54 56 58 55 50 53 55 56 57 59 57 54 53 55 55 55 56 57 61 68 74 80 84 83
11 14 7 6 24 50 43 73 48 40 50 42 44 47 53 56 52 55 55 57 58 56 55 53 53 59 60 56 57 56 55 51 52 52 50 50 53 58 65 71 74 76 77 71
7 38 12 12 29 8 33 61 65 63 64 63 57 53 47 50 55 56 56 54 53 55 56 55 59 63 62 58 55 52 48 50 49 49 48 50 56 62 68 73 74 67 64 62
25 16 15 18 33 34 26 29 30 37 40 42 44 50 56 56 55 52 57 56 59 62 60 60 62 62 59 56 51 47 46 46 45 45 47 52 59 66 70 75 74 59 55 58
Wind_Direction_500mb
34 63 47 21 30 82 100 98 99 101 107 69 105 118 119 111 96 88 71 63 59 53 46 39 32 29 34 34 33 33 32 32 31 29 28 27 26 25 25 23 20 19 18 15
81 54 8 19 66 81 95 104 98 85 88 104 138 128 145 157 131 125 101 74 53 46 38 30 25 25 27 30 31 31 32 29 28 26 23 21 19 18 17 15 13 12 10 9
79 15 349 70 58 71 53 84 131 125 110 86 151 164 184 180 169 171 168 118 53 37 31 21 21 21 21 23 27 26 27 25 23 20 18 16 15 14 9 9 7 6 4 3
63 11 52 76 64 355 74 10 117 124 171 138 281 156 209 191 198 211 209 204 128 34 26 16 15 12 11 13 19 20 19 19 17 14 15 15 15 14 11 8 3 360 358 356
62 23 34 62 14 336 104 132 114 69 83 181 64 249 121 196 222 215 215 215 206 33 24 10 5 3 6 5 5 11 11 9 10 10 11 11 11 9 5 3 1 360 357 354
83 29 24 24 3 51 128 124 96 94 110 234 151 295 175 188 224 212 211 216 217 241 347 358 356 356 358 355 346 351 356 359 0 4 5 5 3 1 358 357 357 355 352 350
113 34 19 16 111 86 190 181 219 198 222 23 116 257 292 200 210 221 205 209 215 238 305 342 349 351 355 354 342 335 342 348 350 354 358 358 358 356 354 353 352 350 348 346
143 145 6 350 23 43 60 184 321 303 279 349 86 235 149 196 217 231 209 207 217 235 272 329 336 343 347 344 333 326 330 336 340 344 348 350 352 351 349 347 346 345 343 341
137 131 105 53 34 303 135 87 100 106 126 266 283 257 219 222 219 208 203 212 226 234 247 323 322 330 336 338 331 318 317 326 328 332 338 341 345 345 344 342 342 340 338 336
169 119 184 115 205 47 4 130 135 75 315 282 227 265 245 209 219 208 217 224 233 237 245 306 319 313 321 333 336 324 315 319 322 322 327 330 335 338 339 337 335 335 333 332
147 290 143 222 183 154 175 162 68 100 333 278 302 254 184 198 199 203 219 228 235 240 260 267 306 295 302 317 331 335 323 317 318 317 320 323 326 331 331 331 331 331 329 328
130 112 135 96 118 316 287 252 272 209 185 65 343 272 186 193 186 211 230 239 244 250 273 277 293 288 291 297 312 325 329 326 321 314 313 317 321 325 325 326 328 329 327 326
183 157 130 181 171 168 222 185 137 102 75 201 197 255 188 217 226 237 240 240 246 257 290 290 291 292 292 292 295 301 310 318 322 314 309 311 317 320 322 323 325 325 324 322
146 129 211 245 84 99 189 196 190 171 183 176 229 271 233 217 234 230 236 251 264 274 280 279 289 302 310 313 306 294 294 303 312 314 309 309 312 316 319 317 320 320 320 319
185 213 186 239 237 272 244 215 193 206 199 213 281 234 262 274 249 257 262 270 268 268 271 276 286 292 299 309 311 306 305 291 298 307 310 306 306 313 315 314 317 318 317 318
169 177 170 266 9 264 275 234 231 227 238 252 259 270 271 275 270 258 256 261 269 268 275 283 287 290 298 303 306 308 305 298 294 299 305 301 303 310 311 311 314 314 313 317
163 145 159 245 4 310 272 238 202 206 221 220 219 231 243 244 245 253 265 268 278 277 285 294 294 289 303 300 300 303 304 299 298 302 301 297 303 306 307 309 311 310 311 315
143 126 85 221 254 234 246 159 224 213 235 215 244 250 240 257 271 275 278 279 282 283 290 295 296 291 300 294 295 299 297 292 298 300 296 297 303 303 306 308 309 308 310 314
147 139 122 208 215 318 262 191 182 187 262 211 226 249 258 267 278 278 277 285 286 276 295 294 292 292 295 290 295 296 293 289 296 295 296 298 302 303 306 308 308 309 311 313
83 48 204 144 234 245 274 170 157 152 267 215 208 233 244 180 242 273 282 283 277 286 290 293 293 293 293 294 291 297 293 291 295 295 296 301 303 304 305 306 307 309 312 314
152 177 218 196 257 278 230 157 152 175 267 170 188 213 214 202 243 278 287 292 291 290 291 290 294 294 294 294 292 293 290 291 293 295 298 300 301 302 302 303 306 310 312 314
167 160 192 150 212 268 157 137 202 205 176 184 208 234 243 266 275 279 284 290 294 295 294 291 294 294 292 290 291 291 289 292 291 293 298 300 302 302 303 305 310 313 315 316
205 188 182 192 208 139 176 210 204 198 199 229 233 267 279 277 278 284 287 294 295 295 295 294 294 292 289 289 291 289 289 287 288 293 297 300 302 303 305 309 312 315 317 317
226 189 236 142 231 229 205 222 236 235 237 252 268 280 286 287 291 294 295 296 297 294 293 297 294 291 291 289 288 286 284 281 288 293 297 300 303 306 308 312 315 318 318 317
165 152 200 257 269 271 240 240 251 256 259 266 272 274 279 286 292 294 293 295 295 294 295 296 292 293 292 290 286 281 275 283 289 292 298 302 305 308 311 313 316 320 317 317
190 179 186 224 225 224 244 272 270 256 262 276 279 282 288 291 291 293 292 298 296 294 296 293 291 292 291 289 282 274 279 285 288 293 298 304 308 311 314 316 316 319 317 316
Wind_Speed_850mb
30 26 24 22 18 15 23 28 27 14 4 21 26 24 15 11 15 15 15 20 25 30 32 38 42 43 45 49 52 56 57 60 61 64 65 64 63 61 60 61 61 60 60 59
16 27 17 8 16 25 26 30 22 18 13 13 19 19 13 11 10 8 8 11 14 20 28 39 43 42 40 42 47 50 53 56 61 62 65 66 63 60 62 60 60 61 62 61
28 9 13 5 18 19 21 13 8 13 16 17 14 13 17 12 10 7 4 4 9 19 29 39 41 39 37 32 38 44 47 51 56 61 63 63 61 59 62 64 64 63 61 59
18 12 13 14 12 11 10 7 15 19 5 5 5 5 16 19 17 17 14 10 2 12 25 36 38 39 36 28 29 35 40 44 50 56 61 64 64 65 65 65 64 63 63 63
8 12 15 20 10 12 9 6 9 6 8 4 3 3 9 13 22 24 25 16 9 3 23 33 33 35 29 25 21 27 32 37 44 52 59 62 61 62 64 65 65 65 65 65
11 5 10 7 6 9 16 9 7 5 2 3 3 4 9 13 19 22 32 25 18 10 14 33 32 30 27 24 17 21 25 31 37 44 52 58 60 63 66 68 71 74 73 70
4 8 3 8 4 8 3 4 1 3 3 2 4 5 8 12 13 18 36 31 23 14 13 30 31 30 26 23 19 22 26 30 35 42 51 56 61 63 64 67 71 75 79 78
4 5 11 15 7 3 6 1 3 5 3 3 2 9 2 3 12 14 22 24 22 21 14 24 24 23 23 23 23 24 26 30 34 40 48 53 58 62 62 64 67 73 77 77
8 5 1 5 11 5 4 2 4 12 2 4 0 7 10 10 17 19 23 26 29 25 20 22 20 19 22 25 25 24 25 29 31 36 44 50 56 60 63 62 65 72 76 75
8 8 1 3 3 19 5 13 2 2 2 6 3 9 5 19 28 27 32 37 35 30 32 24 27 22 21 22 23 24 26 30 33 35 43 49 56 62 65 64 66 73 73 73
8 3 6 3 1 3 4 4 9 6 4 4 6 5 7 17 19 26 38 38 34 32 35 38 36 26 23 21 24 26 28 32 37 38 45 51 57 63 67 66 68 74 74 74
4 5 5 3 4 2 2 2 3 4 6 2 3 12 8 9 12 20 26 27 28 31 34 39 36 31 29 29 30 29 31 38 41 43 48 54 58 64 69 70 72 77 76 78
15 3 4 4 4 2 8 10 7 7 2 12 7 8 4 9 15 22 26 23 26 28 38 35 33 34 37 41 43 41 37 41 47 48 53 59 61 67 71 71 76 77 77 76
6 3 6 6 5 7 8 12 14 7 8 12 18 21 17 17 21 27 29 29 35 44 43 33 28 27 31 39 46 52 51 49 51 53 56 60 62 69 72 70 76 76 74 72
6 9 4 3 3 3 7 14 28 24 16 18 11 20 36 17 22 33 32 36 36 36 34 34 35 37 38 46 50 50 52 55 58 61 64 64 64 69 71 69 75 77 69 71
6 6 4 4 2 3 15 28 34 37 37 36 35 46 60 67 45 40 33 26 30 36 36 41 47 42 44 50 56 57 56 54 61 64 66 63 64 70 69 71 76 73 69 72
13 15 9 6 5 6 14 21 39 25 20 38 26 28 17 16 16 23 29 26 34 40 41 40 41 42 47 53 57 59 58 59 57 63 62 60 64 68 67 72 75 70 70 75
14 11 1 2 3 10 3 2 9 36 20 42 25 33 30 30 23 35 42 45 46 39 33 41 49 47 56 55 57 56 60 58 60 61 59 60 65 66 69 72 70 68 72 77
1 9 7 6 9 15 11 15 16 21 16 49 46 54 45 33 23 46 38 34 36 30 42 47 48 50 53 56 52 60 64 58 60 59 57 60 63 66 71 71 69 70 76 82
8 9 1 7 8 11 2 6 14 16 14 26 54 44 39 13 11 28 25 23 32 41 45 47 50 53 57 56 57 64 57 57 60 55 55 60 64 68 69 69 70 74 79 87
9 6 16 9 10 18 17 24 26 8 6 26 39 35 30 21 38 32 30 39 40 45 48 51 55 56 61 56 60 60 58 59 54 54 58 60 62 64 64 65 68 77 85 91
21 22 12 9 10 22 44 25 16 9 20 27 21 25 32 39 41 43 46 50 50 51 53 55 55 55 54 53 55 58 57 55 54 55 58 58 59 59 60 65 71 78 86 92
12 14 15 24 17 4 87 22 64 17 22 27 29 25 36 43 50 54 55 53 54 56 58 55 50 53 55 56 57 59 57 54 53 55 55 55 56 57 61 68 74 80 84 83
11 14 7 6 24 50 43 73 48 40 50 42 44 47 53 56 52 55 55 57 58 56 55 53 53 59 60 56 57 56 55 51 52 52 50 50 53 58 65 71 74 76 77 71
7 38 12 12 29 8 33 61 65 63 64 63 57 53 47 50 55 56 56 54 53 55 56 55 59 63 62 58 55 52 48 50 49 49 48 50 56 62 68 73 74 67 64 62
25 16 15 18 33 34 26 29 30 37 40 42 44 50 56 56 55 52 57 56 59 62 60 60 62 62 59 56 51 47 46 46 45 45 47 52 59 66 70 75 74 59 55 58
Wind_Direction_850mb
34 63 47 21 30 82 100 98 99 101 107 69 105 118 119 111 96 88 71 63 59 53 46 39 32 29 34 34 33 33 32 32 31 29 28 27 26 25 25 23 20 19 18 15
81 54 8 19 66 81 95 104 98 85 88 104 138 128 145 157 131 125 101 74 53 46 38 30 25 25 27 30 31 31 32 29 28 26 23 21 19 18 17 15 13 12 10 9
79 15 349 70 58 71 53 84 131 125 110 86 151 164 184 180 169 171 168 118 53 37 31 21 21 21 21 23 27 26 27 25 23 20 18 16 15 14 9 9 7 6 4 3
63 11 52 76 64 355 74 10 117 124 171 138 281 156 209 191 198 211 209 204 128 34 26 16 15 12 11 13 19 20 19 19 17 14 15 15 15 14 11 8 3 360 358 356
62 23 34 62 14 336 104 132 114 69 83 181 64 249 121 196 222 215 215 215 206 33 24 10 5 3 6 5 5 11 11 9 10 10 11 11 11 9 5 3 1 360 357 354
83 29 24 24 3 51 128 124 96 94 110 234 151 295 175 188 224 212 211 216 217 241 347 358 356 356 358 355 346 351 356 359 0 4 5 5 3 1 358 357 357 355 352 350
113 34 19 16 111 86 190 181 219 198 222 23 116 257 292 200 210 221 205 209 215 238 305 342 349 351 355 354 342 335 342 348 350 354 358 358 358 356 354 353 352 350 348 346
143 145 6 350 23 43 60 184 321 303 279 349 86 235 149 196 217 231 209 207 217 235 272 329 336 343 347 344 333 326 330 336 340 344 348 350 352 351 349 347 346 345 343 341
137 131 105 53 34 303 135 87 100 106 126 266 283 257 219 222 219 208 203 212 226 234 247 323 322 330 336 338 331 318 317 326 328 332 338 341 345 345 344 342 342 340 338 336
169 119 184 115 205 47 4 130 135 75 315 282 227 265 245 209 219 208 217 224 233 237 245 306 319 313 321 333 336 324 315 319 322 322 327 330 335 338 339 337 335 335 333 332
147 290 143 222 183 154 175 162 68 100 333 278 302 254 184 198 199 203 219 228 235 240 260 267 306 295 302 317 331 335 323 317 318 317 320 323 326 331 331 331 331 331 329 328
130 112 135 96 118 316 287 252 272 209 185 65 343 272 186 193 186 211 230 239 244 250 273 277 293 288 291 297 312 325 329 326 321 314 313 317 321 325 325 326 328 329 327 326
183 157 130 181 171 168 222 185 137 102 75 201 197 255 188 217 226 237 240 240 246 257 290 290 291 292 292 292 295 301 310 318 322 314 309 311 317 320 322 323 325 325 324 322
146 129 211 245 84 99 189 196 190 171 183 176 229 271 233 217 234 230 236 251 264 274 280 279 289 302 310 313 306 294 294 303 312 314 309 309 312 316 319 317 320 320 320 319
185 213 186 239 237 272 244 215 193 206 199 213 281 234 262 274 249 257 262 270 268 268 271 276 286 292 299 309 311 306 305 291 298 307 310 306 306 313 315 314 317 318 317 318
169 177 170 266 9 264 275 234 231 227 238 252 259 270 271 275 270 258 256 261 269 268 275 283 287 290 298 303 306 308 305 298 294 299 305 301 303 310 311 311 314 314 313 317
163 145 159 245 4 310 272 238 202 206 221 220 219 231 243 244 245 253 265 268 278 277 285 294 294 289 303 300 300 303 304 299 298 302 301 297 303 306 307 309 311 310 311 315
143 126 85 221 254 234 246 159 224 213 235 215 244 250 240 257 271 275 278 279 282 283 290 295 296 291 300 294 295 299 297 292 298 300 296 297 303 303 306 308 309 308 310 314
147 139 122 208 215 318 262 191 182 187 262 211 226 249 258 267 278 278 277 285 286 276 295 294 292 292 295 290 295 296 293 289 296 295 296 298 302 303 306 308 308 309 311 313
83 48 204 144 234 245 274 170 157 152 267 215 208 233 244 180 242 273 282 283 277 286 290 293 293 293 293 294 291 297 293 291 295 295 296 301 303 304 305 306 307 309 312 314
152 177 218 196 257 278 230 157 152 175 267 170 188 213 214 202 243 278 287 292 291 290 291 290 294 294 294 294 292 293 290 291 293 295 298 300 301 302 302 303 306 310 312 314
167 160 192 150 212 268 157 137 202 205 176 184 208 234 243 266 275 279 284 290 294 295 294 291 294 294 292 290 291 291 289 292 291 293 298 300 302 302 303 305 310 313 315 316
205 188 182 192 208 139 176 210 204 198 199 229 233 267 279 277 278 284 287 294 295 295 295 294 294 292 289 289 291 289 289 287 288 293 297 300 302 303 305 309 312 315 317 317
226 189 236 142 231 229 205 222 236 235 237 252 268 280 286 287 291 294 295 296 297 294 293 297 294 291 291 289 288 286 284 281 288 293 297 300 303 306 308 312 315 318 318 317
165 152 200 257 269 271 240 240 251 256 259 266 272 274 279 286 292 294 293 295 295 294 295 296 292 293 292 290 286 281 275 283 289 292 298 302 305 308 311 313 316 320 317 317
190 179 186 224 225 224 244 272 270 256 262 276 279 282 288 291 291 293 292 298 296 294 296 293 291 292 291 289 282 274 279 285 288 293 298 304 308 311 314 316 316 319 317 316